Location: Dos Palmas
(32.4468°N, 116.8732°W)
Time: 04:52:21
(UTC+00:00)

Cosmos 773 Rocket - Pass Details

Date: 20 June 2021
Orbit: 746 x 776 km, 74.1° (Epoch: 29 July)

Event Time Altitude Azimuth Distance (km) Brightness Sun altitude
Exits shadow 10:44:03 28° 175° (S) 1,415 5.0 -20.3°
Maximum altitude 10:46:44 63° 104° (ESE) 866 4.3 -19.9°
Drops below altitude 10° 10:51:57 10° 24° (NNE) 2,323 7.5 -19.1°
Sets 10:54:21 0° 21° (NNE) 3,251 8.5 -18.8°
